Hourly Data Report for May 26, 2012

All times are specified in Local Standard Time (LST). Add 1 hour to adjust for Daylight Saving Time where and when it is observed.

GANDER INTL A
NEWFOUNDLAND

48°56'13.000" N
54°34'05.000" W
151.20 m
8401703
71803
YQX

Download Data

Hourly Data (May 2012)
Hourly Data Report for May 26, 2012
Temp Definition
°C
Dew Point Temp Definition
°C
Rel Hum Definition
%
Wind Dir Definition
10's deg

Wind Spd Definition
km/h
Visibility Definition
km
Stn Press Definition
kPa
Hmdx Definition


Wind Chill Definition


Weather Definition


TIME
00:30 Legend Double Dagger 12.2 -0.3 42 24 30 10.0 99.91     LegendNANA
01:30 Legend Double Dagger 11.1 0.0 46 24 26 10.0 99.86     LegendNANA
02:30 Legend Double Dagger 10.5 0.0 48 24 26 10.0 99.85     Mainly Clear
03:30 Legend Double Dagger 10.0 0.9 53 23 28 10.0 99.83     LegendNANA
04:30 Legend Double Dagger 10.0 2.2 58 24 30 10.0 99.84     LegendNANA
05:30 Legend Double Dagger 10.2 3.1 61 23 31 10.0 99.79     Mainly Clear
06:30 Legend Double Dagger 11.0 4.3 63 25 25 10.0 99.77     LegendNANA
07:30 Legend Double Dagger 14.8 4.3 49 23 21 10.0 99.68     LegendNANA
08:30 Legend Double Dagger 16.1 6.1 51 25 14 10.0 99.62     Mainly Clear
09:30 Legend Double Dagger 20.0 8.2 46 23 17 10.0 99.55     LegendNANA
10:30 Legend Double Dagger 21.6 10.3 48 22 31 10.0 99.48     LegendNANA
11:30 Legend Double Dagger 22.0 9.4 44 21 25 10.0 99.38     Mainly Clear
12:30 Legend Double Dagger 23.9 9.7 40 22 24 10.0 99.31 25   LegendNANA
13:30 Legend Double Dagger 24.2 10.7 42 23 37 10.0 99.22 26   LegendNANA
14:30 Legend Double Dagger 24.3 12.1 46 22 33 10.0 99.15 27   Mainly Clear
15:30 Legend Double Dagger 23.9 12.1 47 23 35 10.0 99.10 26   LegendNANA
16:30 Legend Double Dagger 20.8 12.9 60 22 24 10.0 99.06     LegendNANA
17:30 Legend Double Dagger 19.4 13.0 66 22 30 10.0 99.04     Mostly Cloudy
18:30 Legend Double Dagger 17.2 11.8 70 21 21 10.0 99.03     LegendNANA
19:30 Legend Double Dagger 15.0 10.7 75 23 34 10.0 98.99     LegendNANA
20:30 Legend Double Dagger 13.1 9.8 80 23 28 10.0 99.01     Mostly Cloudy
21:30 Legend Double Dagger 12.2 10.0 86 25 28 10.0 99.02     LegendNANA
22:30 Legend Double Dagger 12.0 9.8 86 26 24 10.0 98.98     LegendNANA
23:30 Legend Double Dagger 11.5 9.9 90 25 19 10.0 98.95     Mostly Cloudy

Notes on Data Quality.

Legend

  • E = Estimated
  • M = Missing
  • NA = Not Available
  • ‡ = Partner data that is not subject to review by the National Climate Archives
Date modified: